[{"OBJECT_NAME":"STARLINK-38348","OBJECT_ID":"2026-204P","EPOCH":"2026-09-11T22:38:36.885408","MEAN_MOTION":15.98957956,"ECCENTRICITY":0.00128652,"INCLINATION":69.9943,"RA_OF_ASC_NODE":262.206,"ARG_OF_PERICENTER":232.186,"MEAN_ANOMALY":127.8187,"EPHEMERIS_TYPE":0,"CLASSIFICATION_TYPE":"U","NORAD_CAT_ID":100628,"ELEMENT_SET_NO":999,"REV_AT_EPOCH":86,"BSTAR":0.0028512435,"MEAN_MOTION_DOT":0.01369308,"MEAN_MOTION_DDOT":0.0010080605},{"OBJECT_NAME":"STARLINK-38327","OBJECT_ID":"2026-204Q","EPOCH":"2026-09-11T22:40:04.053504","MEAN_MOTION":15.99424823,"ECCENTRICITY":0.00165132,"INCLINATION":69.9968,"RA_OF_ASC_NODE":262.2073,"ARG_OF_PERICENTER":238.2999,"MEAN_ANOMALY":121.6602,"EPHEMERIS_TYPE":0,"CLASSIFICATION_TYPE":"U","NORAD_CAT_ID":100629,"ELEMENT_SET_NO":999,"REV_AT_EPOCH":86,"BSTAR":0.016374213,"MEAN_MOTION_DOT":0.06341739,"MEAN_MOTION_DDOT":0.068656342},{"OBJECT_NAME":"STARLINK-38376","OBJECT_ID":"2026-204R","EPOCH":"2026-09-11T21:08:01.518432","MEAN_MOTION":16.03600935,"ECCENTRICITY":0.00278308,"INCLINATION":69.995,"RA_OF_ASC_NODE":262.3861,"ARG_OF_PERICENTER":265.3998,"MEAN_ANOMALY":94.4036,"EPHEMERIS_TYPE":0,"CLASSIFICATION_TYPE":"U","NORAD_CAT_ID":100630,"ELEMENT_SET_NO":999,"REV_AT_EPOCH":85,"BSTAR":0.0026697435,"MEAN_MOTION_DOT":0.01718863,"MEAN_MOTION_DDOT":0.001951899},{"OBJECT_NAME":"STARLINK-38421","OBJECT_ID":"2026-204S","EPOCH":"2026-09-11T12:10:06.566016","MEAN_MOTION":15.96359735,"ECCENTRICITY":0.00047557,"INCLINATION":69.9961,"RA_OF_ASC_NODE":263.4921,"ARG_OF_PERICENTER":294.2447,"MEAN_ANOMALY":65.8265,"EPHEMERIS_TYPE":0,"CLASSIFICATION_TYPE":"U","NORAD_CAT_ID":100631,"ELEMENT_SET_NO":999,"REV_AT_EPOCH":79,"BSTAR":-0.0019024189,"MEAN_MOTION_DOT":-0.00797036,"MEAN_MOTION_DDOT":0.00020783079},{"OBJECT_NAME":"STARLINK-38403","OBJECT_ID":"2026-204T","EPOCH":"2026-09-11T22:43:09.847200","MEAN_MOTION":15.92149546,"ECCENTRICITY":0.00044065,"INCLINATION":69.9988,"RA_OF_ASC_NODE":262.2144,"ARG_OF_PERICENTER":353.0031,"MEAN_ANOMALY":7.1114,"EPHEMERIS_TYPE":0,"CLASSIFICATION_TYPE":"U","NORAD_CAT_ID":100632,"ELEMENT_SET_NO":999,"REV_AT_EPOCH":86,"BSTAR":-0.0085894759,"MEAN_MOTION_DOT":-0.02845718,"MEAN_MOTION_DDOT":0.0021629431},{"OBJECT_NAME":"STARLINK-38410","OBJECT_ID":"2026-204U","EPOCH":"2026-09-11T22:41:10.967712","MEAN_MOTION":15.99907735,"ECCENTRICITY":0.00077366,"INCLINATION":69.9948,"RA_OF_ASC_NODE":262.2161,"ARG_OF_PERICENTER":238.2154,"MEAN_ANOMALY":121.8304,"EPHEMERIS_TYPE":0,"CLASSIFICATION_TYPE":"U","NORAD_CAT_ID":100633,"ELEMENT_SET_NO":999,"REV_AT_EPOCH":86,"BSTAR":0.0021636496,"MEAN_MOTION_DOT":0.01096169,"MEAN_MOTION_DDOT":0.00060931906},{"OBJECT_NAME":"STARLINK-38415","OBJECT_ID":"2026-204V","EPOCH":"2026-09-11T22:44:17.272032","MEAN_MOTION":15.93849242,"ECCENTRICITY":0.00038807,"INCLINATION":69.996,"RA_OF_ASC_NODE":262.2201,"ARG_OF_PERICENTER":195.4173,"MEAN_ANOMALY":164.6917,"EPHEMERIS_TYPE":0,"CLASSIFICATION_TYPE":"U","NORAD_CAT_ID":100634,"ELEMENT_SET_NO":999,"REV_AT_EPOCH":86,"BSTAR":-0.0018664925,"MEAN_MOTION_DOT":-0.00684006,"MEAN_MOTION_DDOT":0.00015247334},{"OBJECT_NAME":"STARLINK-38413","OBJECT_ID":"2026-204W","EPOCH":"2026-09-11T22:41:17.862432","MEAN_MOTION":15.89906621,"ECCENTRICITY":0.00061111,"INCLINATION":69.9975,"RA_OF_ASC_NODE":262.2111,"ARG_OF_PERICENTER":292.3355,"MEAN_ANOMALY":67.7203,"EPHEMERIS_TYPE":0,"CLASSIFICATION_TYPE":"U","NORAD_CAT_ID":100635,"ELEMENT_SET_NO":999,"REV_AT_EPOCH":86,"BSTAR":-0.037646851,"MEAN_MOTION_DOT":-0.12794299,"MEAN_MOTION_DDOT":0.054924182},{"OBJECT_NAME":"STARLINK-38170","OBJECT_ID":"2026-204X","EPOCH":"2026-09-11T18:10:47.824608","MEAN_MOTION":15.98881862,"ECCENTRICITY":0.00043409,"INCLINATION":69.9959,"RA_OF_ASC_NODE":262.7618,"ARG_OF_PERICENTER":298.9665,"MEAN_ANOMALY":61.1109,"EPHEMERIS_TYPE":0,"CLASSIFICATION_TYPE":"U","NORAD_CAT_ID":100636,"ELEMENT_SET_NO":999,"REV_AT_EPOCH":83,"BSTAR":0.00067953961,"MEAN_MOTION_DOT":0.00326103,"MEAN_MOTION_DDOT":0.000047772155},{"OBJECT_NAME":"STARLINK-38422","OBJECT_ID":"2026-204Y","EPOCH":"2026-09-11T18:11:40.062912","MEAN_MOTION":15.98509483,"ECCENTRICITY":0.0004619,"INCLINATION":69.9966,"RA_OF_ASC_NODE":262.7637,"ARG_OF_PERICENTER":298.8309,"MEAN_ANOMALY":61.2437,"EPHEMERIS_TYPE":0,"CLASSIFICATION_TYPE":"U","NORAD_CAT_ID":100637,"ELEMENT_SET_NO":999,"REV_AT_EPOCH":83,"BSTAR":0.00082395798,"MEAN_MOTION_DOT":0.00387432,"MEAN_MOTION_DDOT":0.000066239831},{"OBJECT_NAME":"STARLINK-38416","OBJECT_ID":"2026-204Z","EPOCH":"2026-09-11T22:48:52.449984","MEAN_MOTION":15.9230252,"ECCENTRICITY":0.00035299,"INCLINATION":69.9958,"RA_OF_ASC_NODE":262.2316,"ARG_OF_PERICENTER":247.7809,"MEAN_ANOMALY":112.3024,"EPHEMERIS_TYPE":0,"CLASSIFICATION_TYPE":"U","NORAD_CAT_ID":100638,"ELEMENT_SET_NO":999,"REV_AT_EPOCH":86,"BSTAR":-0.0018883766,"MEAN_MOTION_DOT":-0.00638432,"MEAN_MOTION_DDOT":0.00013206611},{"OBJECT_NAME":"STARLINK-38411","OBJECT_ID":"2026-204AA","EPOCH":"2026-09-11T18:17:29.045472","MEAN_MOTION":15.93371624,"ECCENTRICITY":0.00038186,"INCLINATION":69.9958,"RA_OF_ASC_NODE":262.7806,"ARG_OF_PERICENTER":283.1697,"MEAN_ANOMALY":76.9084,"EPHEMERIS_TYPE":0,"CLASSIFICATION_TYPE":"U","NORAD_CAT_ID":100639,"ELEMENT_SET_NO":999,"REV_AT_EPOCH":83,"BSTAR":-0.0056088715,"MEAN_MOTION_DOT":-0.01985008,"MEAN_MOTION_DDOT":0.0010908097},{"OBJECT_NAME":"STARLINK-38412","OBJECT_ID":"2026-204AB","EPOCH":"2026-09-11T18:19:23.244672","MEAN_MOTION":15.92518271,"ECCENTRICITY":0.00056404,"INCLINATION":69.9962,"RA_OF_ASC_NODE":262.7862,"ARG_OF_PERICENTER":237.6704,"MEAN_ANOMALY":122.3958,"EPHEMERIS_TYPE":0,"CLASSIFICATION_TYPE":"U","NORAD_CAT_ID":100640,"ELEMENT_SET_NO":999,"REV_AT_EPOCH":83,"BSTAR":-0.0013193075,"MEAN_MOTION_DOT":-0.00452205,"MEAN_MOTION_DDOT":0.000070174689},{"OBJECT_NAME":"STARLINK-38436","OBJECT_ID":"2026-204AC","EPOCH":"2026-09-11T22:53:02.325696","MEAN_MOTION":15.90677796,"ECCENTRICITY":0.00038175,"INCLINATION":69.9967,"RA_OF_ASC_NODE":262.2428,"ARG_OF_PERICENTER":245.1357,"MEAN_ANOMALY":114.9453,"EPHEMERIS_TYPE":0,"CLASSIFICATION_TYPE":"U","NORAD_CAT_ID":100641,"ELEMENT_SET_NO":999,"REV_AT_EPOCH":86,"BSTAR":-0.0021501489,"MEAN_MOTION_DOT":-0.00668678,"MEAN_MOTION_DDOT":0.00014151675},{"OBJECT_NAME":"CESARIO","OBJECT_ID":"2026-156CE","EPOCH":"2026-09-11T19:17:14.128800","MEAN_MOTION":14.92759901,"ECCENTRICITY":0.00091947,"INCLINATION":97.5927,"RA_OF_ASC_NODE":153.3548,"ARG_OF_PERICENTER":287.4849,"MEAN_ANOMALY":72.5366,"EPHEMERIS_TYPE":0,"CLASSIFICATION_TYPE":"U","NORAD_CAT_ID":100642,"ELEMENT_SET_NO":999,"REV_AT_EPOCH":991,"BSTAR":0.00015457206,"MEAN_MOTION_DOT":0.00001543,"MEAN_MOTION_DDOT":0},{"OBJECT_NAME":"2026-205A","OBJECT_ID":"2026-205A","EPOCH":"2026-09-11T20:59:10.663872","MEAN_MOTION":15.15759208,"ECCENTRICITY":0.00066484,"INCLINATION":44.9984,"RA_OF_ASC_NODE":100.2311,"ARG_OF_PERICENTER":274.9055,"MEAN_ANOMALY":85.1064,"EPHEMERIS_TYPE":0,"CLASSIFICATION_TYPE":"U","NORAD_CAT_ID":100651,"ELEMENT_SET_NO":999,"REV_AT_EPOCH":23,"BSTAR":-0.00028361466,"MEAN_MOTION_DOT":-0.00005766,"MEAN_MOTION_DDOT":0},{"OBJECT_NAME":"2026-205B","OBJECT_ID":"2026-205B","EPOCH":"2026-09-11T22:34:01.251264","MEAN_MOTION":15.15809793,"ECCENTRICITY":0.00068269,"INCLINATION":44.9994,"RA_OF_ASC_NODE":99.8761,"ARG_OF_PERICENTER":275.7494,"MEAN_ANOMALY":84.2606,"EPHEMERIS_TYPE":0,"CLASSIFICATION_TYPE":"U","NORAD_CAT_ID":100652,"ELEMENT_SET_NO":999,"REV_AT_EPOCH":24,"BSTAR":0.00007908813,"MEAN_MOTION_DOT":0.00001273,"MEAN_MOTION_DDOT":0},{"OBJECT_NAME":"2026-205C","OBJECT_ID":"2026-205C","EPOCH":"2026-09-11T22:33:54.752256","MEAN_MOTION":15.15871628,"ECCENTRICITY":0.0007847,"INCLINATION":44.9976,"RA_OF_ASC_NODE":99.8778,"ARG_OF_PERICENTER":272.6384,"MEAN_ANOMALY":87.3597,"EPHEMERIS_TYPE":0,"CLASSIFICATION_TYPE":"U","NORAD_CAT_ID":100653,"ELEMENT_SET_NO":999,"REV_AT_EPOCH":24,"BSTAR":0.000034737446,"MEAN_MOTION_DOT":0.00000411,"MEAN_MOTION_DDOT":0},{"OBJECT_NAME":"2026-205D","OBJECT_ID":"2026-205D","EPOCH":"2026-09-11T22:33:50.937696","MEAN_MOTION":15.15922043,"ECCENTRICITY":0.00081032,"INCLINATION":44.9951,"RA_OF_ASC_NODE":99.879,"ARG_OF_PERICENTER":273.2692,"MEAN_ANOMALY":86.7259,"EPHEMERIS_TYPE":0,"CLASSIFICATION_TYPE":"U","NORAD_CAT_ID":100654,"ELEMENT_SET_NO":999,"REV_AT_EPOCH":24,"BSTAR":0.00016128263,"MEAN_MOTION_DOT":0.00002882,"MEAN_MOTION_DDOT":0},{"OBJECT_NAME":"2026-205E","OBJECT_ID":"2026-205E","EPOCH":"2026-09-11T22:33:42.875712","MEAN_MOTION":15.16015233,"ECCENTRICITY":0.00075259,"INCLINATION":44.993,"RA_OF_ASC_NODE":99.8809,"ARG_OF_PERICENTER":280.7699,"MEAN_ANOMALY":79.2332,"EPHEMERIS_TYPE":0,"CLASSIFICATION_TYPE":"U","NORAD_CAT_ID":100655,"ELEMENT_SET_NO":999,"REV_AT_EPOCH":24,"BSTAR":0.00011278105,"MEAN_MOTION_DOT":0.0000194,"MEAN_MOTION_DDOT":0},{"OBJECT_NAME":"2026-205F","OBJECT_ID":"2026-205F","EPOCH":"2026-09-11T22:33:35.288928","MEAN_MOTION":15.16094464,"ECCENTRICITY":0.00079262,"INCLINATION":44.9932,"RA_OF_ASC_NODE":99.8795,"ARG_OF_PERICENTER":281.7342,"MEAN_ANOMALY":78.2647,"EPHEMERIS_TYPE":0,"CLASSIFICATION_TYPE":"U","NORAD_CAT_ID":100656,"ELEMENT_SET_NO":999,"REV_AT_EPOCH":22,"BSTAR":0.00037616443,"MEAN_MOTION_DOT":0.00007115,"MEAN_MOTION_DDOT":0},{"OBJECT_NAME":"CZ-4B R/B","OBJECT_ID":"2026-205G","EPOCH":"2026-09-11T23:13:50.979360","MEAN_MOTION":15.52616181,"ECCENTRICITY":0.01606882,"INCLINATION":45.0894,"RA_OF_ASC_NODE":99.2564,"ARG_OF_PERICENTER":3.546,"MEAN_ANOMALY":356.6535,"EPHEMERIS_TYPE":0,"CLASSIFICATION_TYPE":"U","NORAD_CAT_ID":100657,"ELEMENT_SET_NO":999,"REV_AT_EPOCH":25,"BSTAR":0.00045926797,"MEAN_MOTION_DOT":0.00050905,"MEAN_MOTION_DDOT":0}]